Date,TemperatureHighF,TemperatureAvgF,TemperatureLowF,DewpointHighF,DewpointAvgF,DewpointLowF,HumidityHigh,HumidityAvg,HumidityLow,PressureMaxIn,PressureMinIn,WindSpeedMaxMPH,WindSpeedAvgMPH,GustSpeedMaxMPH,PrecipitationSumIn
2013-1-1,40,38,27,30,25,12,71,61,48,30.02,29.83,18,8,23,0.00
2013-1-2,34,28,24,18,14,11,61,54,44,30.18,30.00,14,7,22,0.00
2013-1-3,34,30,26,20,17,15,70,60,49,30.20,30.07,11,5,20,0.00
2013-1-4,38,35,32,24,22,21,67,60,52,30.09,29.95,16,7,22,0.00
2013-1-5,44,38,33,25,22,19,61,54,45,30.28,30.02,16,6,25,0.00
2013-1-6,47,40,34,33,29,24,90,67,49,30.23,29.98,11,5,14,0.00
2013-1-7,45,41,35,30,26,21,70,57,39,30.40,30.06,15,4,20,0.00
2013-1-8,49,42,35,34,31,27,78,66,54,30.44,30.34,14,4,16,0.00
2013-1-9,51,44,37,40,36,31,86,73,63,30.39,30.13,13,3,20,0.00
2013-1-10,49,45,41,35,27,24,64,49,38,30.54,30.23,19,7,27,0.00
2013-1-11,47,42,38,46,35,26,97,77,56,30.54,30.09,8,2,12,0.52
2013-1-12,47,44,43,46,44,42,98,97,94,30.18,30.07,10,3,14,0.04
2013-1-13,48,45,43,48,45,42,99,98,97,30.16,30.01,8,2,14,0.00
2013-1-14,58,50,39,54,45,34,100,82,52,30.30,29.93,14,5,20,0.04
2013-1-15,39,38,36,35,29,26,89,72,61,30.34,30.22,10,4,12,0.13
2013-1-16,38,36,33,36,34,30,96,93,82,30.21,29.80,18,4,18,0.84
2013-1-17,44,41,36,35,29,25,88,65,54,30.10,29.91,17,6,18,0.00
2013-1-18,36,30,26,26,12,4,66,49,32,30.49,29.99,19,6,21,0.00
2013-1-19,52,41,30,31,25,14,71,54,38,30.41,29.93,25,7,25,0.00
2013-1-20,55,44,31,32,24,11,69,48,23,30.04,29.69,29,8,31,0.00
2013-1-21,32,30,28,22,14,8,66,50,41,30.10,29.83,20,4,20,0.00
2013-1-22,29,21,14,16,3,-8,70,46,30,30.22,29.83,25,10,25,0.00
2013-1-23,19,16,12,2,-2,-6,56,44,34,30.26,30.17,21,7,22,0.00
2013-1-24,24,18,15,5,1,-4,62,46,31,30.40,30.13,29,8,30,0.00
2013-1-25,25,19,14,18,8,-2,89,62,45,30.42,30.07,20,4,22,0.00
2013-1-26,28,22,17,14,10,6,78,61,43,30.38,30.05,23,7,23,0.00
2013-1-27,35,28,21,14,12,8,69,51,35,30.53,30.37,17,5,17,0.00
2013-1-28,36,33,27,34,26,13,94,78,49,30.49,30.01,14,3,14,0.22
2013-1-29,50,43,36,43,40,34,95,88,71,30.19,30.00,15,3,15,0.03
2013-1-30,53,49,41,52,48,39,99,96,91,30.09,29.38,24,7,24,0.02
2013-1-31,58,45,30,58,31,10,99,62,35,29.79,29.05,30,13,41,0.31
2013-2-1,32,29,25,16,12,5,65,49,33,30.24,29.79,29,9,30,0.00
2013-2-2,30,25,20,22,10,6,87,54,37,30.31,30.06,18,5,19,0.00
2013-2-3,31,28,25,24,21,16,91,76,57,30.06,29.79,13,3,13,0.00
2013-2-4,31,28,24,23,12,8,76,52,40,29.99,29.81,27,7,27,0.00
2013-2-5,32,30,28,30,26,18,92,86,63,29.98,29.90,10,2,10,0.00
2013-2-6,40,34,30,31,22,2,96,63,29,30.36,29.92,22,6,23,0.00
2013-2-7,32,30,27,22,12,3,69,47,31,30.52,30.33,11,3,16,0.00
2013-2-8,35,33,27,34,30,22,97,90,69,30.33,29.61,29,8,29,0.21
2013-2-9,33,28,23,27,18,6,97,67,36,30.34,29.74,28,10,28,0.00
2013-2-10,39,28,20,27,15,8,82,59,38,30.49,30.33,14,3,16,0.02
2013-2-11,47,41,33,46,39,25,99,93,72,30.34,29.66,17,2,17,0.64
2013-2-12,45,42,38,42,28,25,90,58,48,29.97,29.72,25,7,25,0.00
2013-2-13,45,38,32,33,27,23,92,65,50,29.96,29.68,14,2,15,0.01
2013-2-14,47,39,34,36,31,22,93,74,39,30.00,29.70,13,4,13,0.01
2013-2-15,51,43,36,40,35,29,85,76,49,30.02,29.92,18,4,18,0.00
2013-2-16,43,36,31,35,27,16,91,70,51,29.97,29.72,26,7,26,0.01
2013-2-17,32,27,18,17,6,0,54,41,29,30.00,29.66,35,13,39,0.00
2013-2-18,36,27,18,17,7,2,55,44,29,30.25,30.00,28,8,34,0.00
2013-2-19,46,40,31,44,31,15,97,73,48,30.22,29.67,24,5,24,0.12
2013-2-20,39,31,26,27,15,10,64,50,41,29.99,29.72,28,10,28,0.00
2013-2-21,35,29,25,16,14,11,65,53,43,30.28,29.98,30,11,30,0.00
2013-2-22,38,32,26,33,24,16,85,70,56,30.41,30.26,16,5,21,0.00
2013-2-23,44,39,36,43,38,33,97,94,83,30.28,29.80,18,5,18,0.41
2013-2-24,48,40,35,39,32,22,97,76,54,29.97,29.73,26,8,27,0.01
2013-2-25,44,38,34,30,26,23,72,62,48,30.23,29.97,17,6,19,0.00
2013-2-26,44,39,34,36,33,29,93,78,65,30.29,29.89,26,7,26,0.15
2013-2-27,49,44,38,47,41,35,98,89,72,29.90,29.49,29,7,29,1.11
2013-2-28,50,45,40,39,35,29,85,68,53,29.63,29.54,13,4,14,0.01
2013-3-1,44,41,38,32,30,26,77,66,53,29.78,29.60,20,7,21,0.00
2013-3-2,40,36,32,28,26,24,83,66,56,29.78,29.69,16,7,19,0.00
2013-3-3,41,33,29,26,21,17,82,61,44,29.76,29.66,24,8,24,0.00
2013-3-4,41,34,28,22,20,16,69,57,44,29.91,29.76,23,10,30,0.00
2013-3-5,48,39,32,31,26,21,71,58,43,30.02,29.90,24,6,26,0.00
2013-3-6,42,40,36,36,33,29,86,76,68,29.98,29.84,34,11,36,0.01
2013-3-7,38,36,33,33,31,28,97,85,70,30.07,29.90,31,10,31,0.04
2013-3-8,42,35,31,35,31,27,98,87,57,30.18,30.00,28,10,28,0.06
2013-3-9,56,45,37,35,25,18,84,49,24,30.33,30.16,22,7,22,0.00
2013-3-10,45,39,34,36,34,31,93,84,69,30.40,30.31,14,4,15,0.00
2013-3-11,51,45,39,46,42,36,96,90,80,30.33,30.10,14,5,19,0.00
2013-3-12,56,49,45,54,46,38,98,92,73,30.11,29.68,29,8,33,0.37
2013-3-13,50,45,40,38,30,22,76,58,33,29.89,29.79,20,6,20,0.00
2013-3-14,41,36,30,27,14,6,63,41,25,29.97,29.84,31,12,33,0.00
2013-3-15,48,39,31,32,20,9,62,47,35,29.98,29.72,21,7,22,0.00
2013-3-16,43,36,33,32,27,20,92,69,50,29.91,29.78,20,4,20,0.04
2013-3-17,38,34,30,30,19,11,82,55,36,30.31,29.91,22,6,22,0.00
2013-3-18,36,32,28,33,20,9,97,64,39,30.41,30.01,22,6,25,0.04
2013-3-19,46,39,34,37,34,28,96,86,62,30.02,29.69,21,6,21,0.84
2013-3-20,46,40,33,29,20,17,67,46,32,29.89,29.79,24,7,24,0.00
2013-3-21,41,35,32,28,19,11,80,52,34,29.85,29.63,20,6,22,0.00
2013-3-22,41,35,30,23,18,13,64,50,39,29.88,29.73,19,7,22,0.00
2013-3-23,46,39,34,24,20,18,63,47,35,29.93,29.82,19,8,26,0.00
2013-3-24,46,39,34,29,22,19,66,52,38,29.95,29.72,12,5,25,0.00
2013-3-25,39,38,36,36,32,27,94,80,62,29.71,29.46,16,5,22,0.22
2013-3-26,52,44,38,33,28,25,83,56,35,29.86,29.58,12,5,18,0.00
2013-3-27,53,45,39,32,26,20,62,48,28,29.97,29.86,17,7,25,0.00
2013-3-28,50,44,39,34,30,28,70,59,47,30.11,29.96,15,8,24,0.00
2013-3-29,54,48,42,31,29,26,62,49,34,30.14,30.05,15,6,24,0.00
2013-3-30,58,48,42,38,30,20,80,52,23,30.17,30.07,12,4,20,0.00
2013-3-31,51,47,40,45,37,27,97,69,46,30.12,29.67,16,5,23,0.12
2013-4-1,63,50,39,46,38,13,97,68,32,29.91,29.62,18,7,30,0.01
2013-4-2,44,39,34,17,13,10,48,36,26,30.08,29.92,18,8,25,0.00
2013-4-3,47,39,34,15,12,9,45,33,22,30.29,30.09,20,10,29,0.00
2013-4-4,49,40,35,35,22,14,72,50,34,30.39,30.10,17,6,29,0.00
2013-4-5,63,49,41,35,26,18,78,45,20,30.09,29.70,23,6,28,0.00
2013-4-6,51,42,36,32,19,8,73,42,19,30.32,30.00,20,7,26,0.00
2013-4-7,50,46,39,45,38,25,85,72,50,30.31,30.01,20,8,36,0.00
2013-4-8,71,56,45,48,45,42,93,70,39,30.08,29.98,16,4,22,0.00
2013-4-9,83,67,50,53,45,34,91,54,18,30.00,29.89,12,4,25,0.00
2013-4-10,72,61,54,56,50,45,95,68,52,29.97,29.81,13,4,27,0.59
2013-4-11,60,54,47,58,49,40,98,84,68,30.04,29.76,17,6,22,0.02
2013-4-12,48,43,41,43,40,38,96,90,68,30.02,29.71,15,8,26,0.47
2013-4-13,56,47,41,45,39,32,96,76,47,29.98,29.74,11,4,17,0.03
2013-4-14,57,52,47,46,34,26,93,53,32,30.22,29.97,17,5,23,0.00
2013-4-15,53,48,44,42,32,26,83,55,42,30.38,30.22,11,4,16,0.00
2013-4-16,58,53,46,53,48,39,92,84,77,30.38,30.13,21,6,27,0.00
2013-4-17,70,60,53,57,47,39,92,65,32,30.29,30.11,13,4,13,0.01
2013-4-18,57,53,49,52,45,41,97,76,57,30.35,30.11,16,6,21,0.01
2013-4-19,65,57,52,61,56,51,99,96,85,30.10,29.67,20,8,27,0.01
2013-4-20,62,54,48,61,35,25,97,51,29,30.29,29.68,16,8,26,0.14
2013-4-21,53,45,38,34,24,18,67,46,28,30.62,30.30,14,5,23,0.00
2013-4-22,53,47,40,36,32,27,75,58,39,30.66,30.49,15,6,26,0.00
2013-4-23,52,45,41,43,38,33,90,76,64,30.48,30.11,16,6,19,0.00
2013-4-24,63,51,45,50,45,40,96,81,57,30.11,29.85,19,6,25,0.00
2013-4-25,65,55,47,55,33,22,95,47,19,30.26,29.87,17,6,27,0.00
2013-4-26,66,56,46,39,34,24,69,45,20,30.40,30.26,10,3,14,0.00
2013-4-27,68,57,48,39,31,25,52,39,21,30.43,30.29,11,4,15,0.00
2013-4-28,63,55,49,46,40,33,78,58,33,30.32,30.22,16,5,22,0.00
2013-4-29,56,54,52,50,48,46,88,81,72,30.25,30.19,7,4,14,0.06
2013-4-30,63,57,52,48,37,24,85,53,23,30.34,30.21,15,4,18,0.00
2013-5-1,64,55,48,48,40,32,80,59,33,30.49,30.33,12,3,21,0.00
2013-5-2,64,57,46,47,44,42,86,64,47,30.47,30.34,11,3,14,0.00
2013-5-3,59,54,49,46,42,37,85,65,44,30.46,30.37,13,5,16,0.00
2013-5-4,63,53,47,47,44,41,90,72,44,30.37,30.26,14,4,19,0.00
2013-5-5,57,51,46,46,42,39,85,72,54,30.30,30.23,12,5,17,0.00
2013-5-6,63,54,46,52,47,43,89,78,62,30.27,30.16,8,3,13,0.00
2013-5-7,73,61,50,60,54,47,91,79,62,30.17,30.09,9,3,16,0.00
2013-5-8,64,59,55,60,57,52,97,93,86,30.10,29.98,11,4,15,3.38
2013-5-9,69,60,54,59,56,53,98,88,61,30.01,29.89,6,2,11,0.42
2013-5-10,78,66,58,58,56,50,91,74,41,29.99,29.88,13,4,20,0.00
2013-5-11,65,62,60,62,61,58,97,94,84,29.90,29.70,14,4,22,0.57
2013-5-12,68,62,53,63,42,25,96,51,23,29.93,29.65,19,7,26,0.03
2013-5-13,56,52,48,33,28,23,56,41,29,30.10,29.94,13,6,21,0.00
2013-5-14,62,53,44,42,28,19,69,43,20,30.13,30.02,14,5,17,0.00
2013-5-15,69,58,51,60,48,35,86,71,53,30.07,29.69,15,4,26,0.00
2013-5-16,78,69,65,59,51,41,78,54,31,29.82,29.71,13,3,17,0.00
2013-5-17,74,67,61,45,41,36,54,40,29,30.20,29.83,11,5,21,0.00
2013-5-18,64,60,57,55,51,45,85,74,60,30.31,30.20,8,2,11,0.01
2013-5-19,58,57,55,58,55,51,98,94,77,30.32,30.18,12,4,17,0.54
2013-5-20,76,66,58,67,62,58,99,89,71,30.17,29.96,11,2,14,0.00
2013-5-21,83,73,63,70,66,62,97,81,62,29.97,29.84,14,3,16,0.00
2013-5-22,74,67,60,69,64,58,95,89,76,29.93,29.84,10,3,13,0.00
2013-5-23,76,66,62,68,64,61,98,93,73,29.90,29.77,13,6,21,0.15
2013-5-24,68,57,46,63,54,42,98,89,76,29.94,29.68,16,7,29,0.21
2013-5-25,55,50,46,45,42,38,90,76,58,30.00,29.89,26,11,32,0.06
2013-5-26,67,58,49,40,37,33,69,48,30,30.20,29.95,21,9,33,0.00
2013-5-27,72,63,52,47,39,33,62,42,26,30.25,30.12,12,4,18,0.00
2013-5-28,72,61,57,57,51,42,97,73,39,30.23,30.13,5,2,12,0.56
2013-5-29,78,68,57,68,62,57,98,84,67,30.13,30.00,9,2,12,0.00
2013-5-30,92,80,73,68,66,62,83,63,37,30.12,30.05,12,3,14,0.00
2013-5-31,91,82,75,72,67,64,73,61,47,30.12,29.98,10,3,15,0.00
2013-6-1,85,78,70,70,67,64,84,70,58,30.02,29.90,10,5,16,0.00
2013-6-2,80,74,65,70,66,62,91,77,65,29.92,29.78,11,4,14,0.00
2013-6-3,78,71,67,69,67,47,96,87,44,29.87,29.80,11,3,16,1.10
2013-6-4,76,68,59,49,42,38,56,41,27,30.11,29.88,16,8,23,0.00
2013-6-5,71,66,59,57,46,37,89,50,34,30.21,30.11,12,4,17,0.00
2013-6-6,69,64,58,60,57,48,94,81,47,30.15,30.02,14,5,19,0.08
2013-6-7,63,61,59,63,60,58,98,96,92,30.01,29.62,13,5,24,4.22
2013-6-8,77,68,57,64,61,56,98,78,62,30.04,29.56,13,5,20,0.63
2013-6-9,81,72,66,64,60,55,86,67,46,30.17,30.05,11,3,16,0.00
2013-6-10,70,66,64,66,64,63,98,92,83,30.16,29.83,21,4,22,1.17
2013-6-11,82,74,66,68,65,59,99,76,56,29.83,29.61,16,7,23,0.80
2013-6-12,77,72,67,62,54,52,73,55,42,29.84,29.70,17,8,25,0.00
2013-6-13,67,64,56,62,58,55,96,82,66,29.84,29.45,14,5,24,0.87
2013-6-14,74,63,54,60,54,51,96,74,50,29.88,29.50,16,5,23,0.15
2013-6-15,82,73,64,57,54,47,74,52,31,30.00,29.88,10,4,18,0.00
2013-6-16,82,74,65,67,59,53,76,60,39,29.98,29.77,13,4,24,0.00
2013-6-17,85,76,69,69,66,64,87,72,52,29.91,29.84,18,4,20,0.09
2013-6-18,80,72,66,69,66,64,93,82,63,29.89,29.82,9,2,13,0.28
2013-6-19,77,68,61,64,53,42,95,62,29,30.16,29.87,12,4,19,0.02
2013-6-20,75,68,60,60,55,48,76,63,50,30.27,30.17,12,5,17,0.00
2013-6-21,80,71,64,59,54,48,68,55,42,30.31,30.24,12,4,16,0.00
2013-6-22,81,71,63,65,58,49,79,63,48,30.27,30.14,15,4,20,0.00
2013-6-23,84,76,68,72,66,58,90,74,56,30.20,30.06,17,5,19,0.00
2013-6-24,94,82,74,72,69,61,92,69,37,30.08,29.95,10,4,17,0.00
2013-6-25,93,83,74,71,68,64,78,61,42,29.99,29.80,17,4,22,0.00
2013-6-26,88,80,74,72,68,65,87,68,47,29.84,29.77,11,4,16,0.00
2013-6-27,84,77,72,73,71,69,95,82,61,29.82,29.57,14,4,25,0.09
2013-6-28,86,78,72,72,70,67,94,79,57,29.57,29.47,11,5,16,0.04
2013-6-29,82,75,70,72,69,66,91,82,60,29.70,29.49,15,4,21,0.00
2013-6-30,82,74,70,75,71,68,96,91,75,29.91,29.70,13,4,16,0.01
2013-7-1,76,73,71,73,71,70,96,95,89,30.06,29.90,11,4,18,0.55
2013-7-2,80,75,71,75,72,70,98,91,82,30.19,30.05,14,4,14,0.12
2013-7-3,84,77,73,76,73,70,96,87,72,30.25,30.17,16,4,21,0.55
2013-7-4,90,82,76,76,74,71,95,79,56,30.25,30.15,12,4,16,0.00
2013-7-5,92,84,76,76,73,71,89,72,51,30.21,30.08,11,5,15,0.00
2013-7-6,94,88,79,74,72,70,82,59,45,30.13,30.02,14,5,17,0.00
2013-7-7,95,87,81,75,72,66,76,63,45,30.06,29.92,12,5,15,0.00
2013-7-8,91,82,74,71,68,65,81,65,44,30.04,29.96,11,5,16,0.00
2013-7-9,89,82,76,73,69,66,78,67,52,30.07,29.98,10,4,17,0.00
2013-7-10,88,80,72,77,73,69,93,79,57,30.01,29.80,13,4,17,0.65
2013-7-11,85,81,76,74,70,62,86,70,51,29.92,29.80,7,3,11,0.01
2013-7-12,77,74,69,71,66,62,95,76,60,30.10,29.92,10,5,16,0.32
2013-7-13,82,75,69,75,72,68,97,90,75,30.28,30.10,7,2,10,0.00
2013-7-14,91,83,75,75,74,70,95,75,54,30.33,30.23,13,3,14,0.00
2013-7-15,94,87,79,74,72,69,80,63,44,30.24,30.12,9,4,13,0.00
2013-7-16,94,88,81,73,67,61,72,51,33,30.19,30.12,11,4,19,0.00
2013-7-17,96,87,80,73,70,66,74,57,38,30.18,30.06,9,3,15,0.00
2013-7-18,99,90,82,76,71,64,71,54,32,30.06,29.95,10,4,14,0.00
2013-7-19,97,90,84,77,76,74,77,64,49,29.97,29.79,14,6,22,0.00
2013-7-20,94,85,78,77,72,70,84,67,46,29.82,29.72,14,5,20,0.11
2013-7-21,88,81,76,73,68,62,87,67,46,29.96,29.83,9,3,12,0.00
2013-7-22,82,77,75,75,73,71,96,87,74,29.95,29.79,9,3,13,0.13
2013-7-23,88,80,73,75,72,70,97,78,55,29.79,29.56,9,4,15,0.48
2013-7-24,83,79,70,70,65,55,82,63,49,29.92,29.61,14,5,17,0.00
2013-7-25,70,66,64,61,56,53,88,72,59,30.05,29.92,16,5,19,0.02
2013-7-26,82,72,64,68,62,59,88,71,46,30.04,29.99,10,4,13,0.00
2013-7-27,80,74,69,69,66,62,92,77,55,30.06,29.96,12,4,18,0.00
2013-7-28,78,72,69,71,69,67,96,90,74,29.99,29.93,14,4,20,0.11
2013-7-29,86,77,69,71,64,50,96,67,32,30.09,29.95,8,3,16,0.02
2013-7-30,80,76,67,57,56,54,69,51,40,30.16,30.09,13,4,19,0.00
2013-7-31,81,75,69,64,60,56,75,59,44,30.16,30.04,9,3,15,0.00
2013-8-1,75,71,67,69,66,64,96,84,74,30.05,29.83,11,3,16,0.78
2013-8-2,85,77,67,69,63,58,97,66,42,29.91,29.79,14,4,17,0.02
2013-8-3,79,74,71,66,63,59,83,68,52,29.91,29.84,12,4,16,0.02
2013-8-4,81,74,69,65,56,51,78,54,38,29.96,29.85,16,6,23,0.00
2013-8-5,78,71,64,59,50,43,67,48,32,30.05,29.96,10,4,16,0.00
2013-8-6,79,72,64,61,58,50,84,62,39,30.13,30.03,12,3,17,0.00
2013-8-7,78,73,70,69,65,61,91,76,66,30.15,30.07,16,6,20,0.00
2013-8-8,80,74,70,74,71,67,95,92,81,30.08,30.01,15,4,17,0.62
2013-8-9,86,78,73,76,74,71,97,87,66,30.02,29.80,11,5,19,0.04
2013-8-10,84,78,73,73,62,56,83,59,43,30.05,29.86,15,5,17,0.00
2013-8-11,82,74,65,67,57,50,85,57,39,30.12,30.03,11,3,12,0.00
2013-8-12,81,74,69,70,69,66,93,85,65,30.04,29.93,7,2,10,0.49
2013-8-13,79,72,68,73,69,66,97,90,71,29.94,29.70,12,2,13,1.58
2013-8-14,74,69,62,66,52,46,84,56,45,30.04,29.74,17,8,26,0.00
2013-8-15,78,70,62,59,51,44,71,54,32,30.14,30.05,14,3,19,0.00
2013-8-16,80,71,61,60,56,49,87,60,35,30.21,30.13,11,2,14,0.00
2013-8-17,82,73,63,60,57,54,77,59,38,30.27,30.21,7,2,12,0.00
2013-8-18,78,71,68,62,59,55,78,67,47,30.26,30.13,6,1,10,0.00
2013-8-19,79,73,65,66,61,56,84,67,54,30.13,30.03,10,3,13,0.00
2013-8-20,88,77,67,70,66,61,92,70,41,30.12,30.05,8,2,15,0.00
2013-8-21,89,79,71,71,66,59,86,66,37,30.17,30.06,9,2,14,0.00
2013-8-22,81,76,73,73,71,69,92,84,72,30.06,29.87,6,2,10,0.41
2013-8-23,81,76,72,72,60,50,90,59,35,30.09,29.87,18,5,21,0.01
2013-8-24,78,70,64,60,56,51,84,61,42,30.35,30.10,9,3,16,0.00
2013-8-25,82,72,62,60,56,51,88,60,36,30.39,30.24,12,3,14,0.00
2013-8-26,84,75,68,69,61,55,81,63,51,30.24,29.92,13,5,15,0.02
2013-8-27,86,78,73,69,68,66,87,71,51,29.91,29.82,14,6,20,0.02
2013-9-16,69,65,59,54,52,48,71,63,55,30.23,30.08,11,6,16,0.03
2013-9-17,65,56,49,48,40,36,74,56,38,30.44,30.24,14,5,21,0.00
2013-9-18,72,60,51,53,46,41,81,62,35,30.35,30.20,9,2,12,0.00
2013-9-19,76,64,55,58,52,46,84,67,38,30.20,30.08,10,2,14,0.00
2013-9-20,76,66,59,61,58,56,89,76,54,30.09,30.00,11,4,18,0.00
2013-9-21,74,67,58,68,64,57,96,89,77,30.02,29.67,15,5,26,0.18
2013-9-22,69,64,56,68,52,42,96,68,45,29.91,29.66,15,7,21,1.48
2013-9-23,65,58,51,45,42,39,71,58,44,30.05,29.92,13,6,18,0.00
2013-9-24,74,60,49,46,43,42,80,56,33,30.06,29.87,8,4,15,0.00
2013-9-25,73,63,54,57,47,41,89,58,36,29.96,29.87,6,2,10,0.00
2013-9-26,67,62,56,59,56,53,93,83,70,30.10,29.94,9,2,13,0.00
2013-9-27,67,61,54,55,53,51,94,76,59,30.27,30.10,8,2,12,0.00
2013-9-28,72,64,56,56,54,51,88,70,49,30.33,30.24,9,2,12,0.00
2013-9-29,70,62,56,58,55,53,95,80,58,30.24,30.09,11,2,13,0.00
2013-9-30,72,62,53,58,54,50,96,77,47,30.09,29.98,8,2,12,0.00
2013-10-1,80,70,59,60,56,51,82,63,40,30.00,29.89,9,3,12,0.00
2013-10-2,84,74,62,63,60,57,84,63,47,30.01,29.90,9,3,15,0.00
2013-10-3,78,71,61,61,56,49,87,61,37,30.12,30.01,6,2,10,0.00
2013-10-4,84,72,64,67,64,56,90,75,55,30.07,29.97,10,2,13,0.00
2013-10-5,77,67,64,66,64,62,94,87,68,30.10,30.01,8,3,11,0.04
2013-10-6,69,66,64,68,65,63,97,95,92,30.10,30.04,10,4,14,0.00
2013-10-7,75,66,62,70,62,49,97,85,64,30.03,29.79,23,6,31,0.42
2013-10-8,66,61,56,49,45,40,70,56,39,30.32,29.98,17,5,18,0.00
2013-10-9,63,59,54,50,48,44,80,68,60,30.39,30.30,13,4,15,0.00
2013-10-10,64,59,55,57,53,49,88,81,76,30.28,30.07,12,5,19,0.00
2013-10-11,68,64,60,60,58,54,87,81,66,30.09,30.01,13,5,19,0.00
2013-10-12,73,65,60,56,49,36,77,57,27,30.28,30.07,19,7,24,0.00
2013-10-13,65,60,55,54,52,49,82,74,64,30.38,30.28,17,4,17,0.00
2013-10-14,64,57,50,52,49,45,90,77,57,30.37,30.26,7,2,11,0.00
2013-10-15,70,59,51,55,51,47,95,77,45,30.26,30.12,10,2,13,0.00
2013-10-16,67,60,56,60,56,51,96,87,73,30.12,29.93,6,2,10,0.00
2013-10-17,73,64,60,63,61,59,96,89,68,29.92,29.70,12,3,15,0.00
2013-10-18,68,63,58,63,48,42,93,60,41,29.98,29.68,14,6,23,0.00
2013-10-19,62,57,50,56,48,42,88,72,55,29.99,29.74,10,2,16,0.00
2013-10-20,63,57,51,56,40,34,88,56,35,30.07,29.75,13,5,26,0.00
2013-10-21,66,58,48,48,41,35,75,56,34,30.16,30.00,16,3,18,0.00
2013-10-22,66,59,54,51,47,38,85,66,50,29.99,29.75,11,4,16,0.00
2013-10-23,54,50,47,42,38,34,77,64,48,29.82,29.62,18,4,18,0.00
2013-10-24,54,48,42,37,32,25,74,56,37,30.02,29.76,14,6,19,0.00
2013-10-25,54,47,41,35,31,27,70,55,37,30.23,30.02,14,6,23,0.00
2013-10-26,56,49,42,37,33,29,78,56,38,30.23,29.91,17,5,26,0.00
2013-10-27,58,53,48,34,33,31,56,47,37,30.12,29.86,13,6,19,0.00
2013-10-28,61,52,42,37,34,32,73,52,36,30.31,30.13,11,3,19,0.00
2013-10-29,56,49,44,38,35,33,73,58,43,30.42,30.32,7,2,13,0.00
2013-10-30,60,53,45,53,45,34,88,74,62,30.36,30.19,8,2,11,0.00
2013-10-31,64,59,52,60,56,49,93,89,84,30.23,29.82,11,4,18,0.04
2013-11-1,69,65,60,63,59,54,96,81,60,29.80,29.56,13,5,34,0.05
2013-11-2,66,60,54,59,48,39,93,65,47,29.78,29.63,10,3,13,0.00
2013-11-3,57,47,38,43,34,18,79,60,43,30.45,29.78,19,7,20,0.00
2013-11-4,45,39,34,24,20,16,52,46,32,30.66,30.45,12,4,18,0.00
2013-11-5,53,48,41,44,37,25,79,66,53,30.66,30.49,9,3,15,0.00
2013-11-6,58,54,45,54,48,43,95,82,65,30.49,30.08,11,4,16,0.00
2013-11-7,64,56,45,59,50,32,93,81,56,30.07,29.75,15,6,26,0.10
2013-11-8,49,45,41,34,28,24,72,53,40,30.22,29.94,15,8,23,0.00
2013-11-9,48,45,40,37,28,24,66,53,40,30.30,30.00,12,4,16,0.00
2013-11-10,59,50,44,39,34,29,72,56,36,30.05,29.81,19,7,30,0.00
2013-11-11,52,49,44,33,30,26,53,48,42,30.21,29.97,16,6,21,0.00
2013-11-12,52,39,32,37,25,16,91,59,46,30.29,29.93,21,9,24,0.02
2013-11-13,39,34,29,22,16,12,64,50,33,30.37,30.28,17,7,22,0.00
2013-11-14,52,43,34,23,20,15,61,43,23,30.28,30.16,15,6,21,0.00
2013-11-15,57,48,39,41,31,23,73,53,35,30.26,30.17,9,2,11,0.00
2013-11-16,57,50,45,49,43,31,95,76,45,30.33,30.23,8,2,11,0.08
2013-11-17,59,55,47,58,53,46,99,94,86,30.28,29.80,9,3,11,0.05
2013-11-18,65,60,52,60,43,26,99,59,32,29.80,29.61,15,6,24,0.30
2013-11-19,51,44,37,31,26,22,57,49,43,30.34,29.78,21,12,28,0.00
2013-11-20,44,37,32,24,19,11,65,49,27,30.61,30.34,15,5,21,0.00
2013-11-21,51,44,35,44,33,23,79,67,55,30.62,30.40,10,3,13,0.00
2013-11-22,56,53,50,50,48,42,94,82,71,30.39,29.90,10,4,13,0.05
2013-11-23,54,43,31,50,26,11,85,52,32,30.03,29.90,22,10,31,0.00
2013-11-24,31,26,23,12,5,0,50,41,28,30.38,30.00,29,13,38,0.00
2013-11-25,36,29,23,17,12,7,57,50,41,30.49,30.35,15,6,21,0.00
2013-11-26,52,38,34,51,28,17,97,69,47,30.35,29.79,12,4,15,0.53
2013-11-27,60,48,36,59,45,23,98,89,60,29.78,29.35,22,10,34,1.00
2013-11-28,35,32,31,20,14,9,61,47,36,30.48,29.76,23,8,32,0.00
2013-11-29,38,34,30,20,18,14,59,52,45,30.73,30.47,12,5,18,0.00
2013-11-30,38,32,26,30,21,13,72,62,44,30.76,30.38,10,3,13,0.00
2013-12-1,49,44,38,36,33,30,82,67,48,30.38,30.01,6,2,7,0.00
2013-12-2,50,44,40,41,37,31,90,77,58,30.01,29.89,3,1,8,0.00
2013-12-3,53,45,39,39,37,36,92,74,55,30.01,29.88,4,2,8,0.00
2013-12-4,50,46,40,46,39,34,89,78,64,30.14,30.02,4,1,7,0.00
2013-12-5,56,52,48,54,50,44,98,95,85,30.12,29.94,9,2,13,0.03
2013-12-6,54,47,36,54,45,34,99,94,88,30.15,29.87,13,5,19,0.72
2013-12-7,41,37,32,35,27,17,95,70,48,30.51,30.09,14,7,19,0.11
2013-12-8,33,31,29,30,21,15,94,68,54,30.60,30.39,11,4,15,0.00
2013-12-9,40,36,31,38,35,30,97,95,88,30.37,29.97,9,5,17,0.32
2013-12-10,38,34,30,34,30,17,96,84,57,30.14,29.88,12,5,22,0.08
2013-12-11,33,30,27,20,17,14,64,58,50,30.34,30.14,15,7,21,0.00
2013-12-12,29,26,23,17,9,5,67,50,40,30.37,30.17,22,8,25,0.00
2013-12-13,35,30,24,20,14,6,60,52,47,30.33,30.14,16,6,28,0.00
2013-12-14,35,27,24,33,23,18,97,85,52,30.50,29.78,21,5,21,0.00
2013-12-15,42,36,31,42,31,22,98,82,60,29.86,29.47,24,7,24,0.58
2013-12-16,34,29,26,24,14,9,68,53,42,30.24,29.84,24,6,24,0.00
2013-12-17,32,27,24,30,21,10,95,80,49,30.24,29.92,14,4,14,0.00
2013-12-18,38,31,24,25,22,20,88,72,54,30.17,29.92,14,5,18,0.00
2013-12-19,45,38,30,32,27,21,80,64,51,30.19,30.04,16,3,16,0.04
2013-12-20,54,47,38,47,36,32,84,66,49,30.11,29.98,14,3,14,0.00
2013-12-21,60,53,50,51,48,46,93,83,67,30.01,29.91,16,4,16,0.00
2013-12-22,70,58,49,63,55,47,98,88,71,29.97,29.82,21,4,21,0.00
2013-12-23,62,53,42,58,50,34,99,91,72,30.15,29.88,21,4,22,0.59
2013-12-24,42,36,26,34,23,8,75,60,45,30.35,30.09,26,8,29,0.00
2013-12-25,31,25,19,23,10,7,73,54,45,30.54,30.35,27,5,28,0.00
2013-12-26,36,33,28,28,24,20,80,70,56,30.43,30.17,17,4,17,0.00
2013-12-27,41,36,32,26,22,18,70,57,44,30.37,30.27,15,5,18,0.00
2013-12-28,56,45,34,31,28,25,74,53,36,30.30,30.08,24,5,24,0.00
2013-12-29,47,44,42,45,36,29,97,77,51,30.08,29.39,24,4,24,1.56
2013-12-30,45,37,23,39,28,10,89,70,49,30.20,29.70,17,6,20,0.00
2013-12-31,32,27,21,24,14,8,76,59,45,30.29,30.08,14,5,21,0.00
2014-1-1,33,29,25,22,16,8,65,57,46,30.42,30.26,19,4,19,0.00
2014-1-2,32,27,18,26,23,16,93,85,65,30.26,29.66,24,8,24,0.00